Miscellaneous Local Product
Issued by NWS North Platte, NE

Home | Current Version | Previous Version | Text Only | Print | Product List | Glossary On
Versions: 1 2 3 4 5 6 7 8 9 10 11 12 13 14 15 16 17 18 19 20 21 22 23 24 25 26 27 28 29 30 31 32 33 34 35 36 37 38 39 40 41 42 43 44 45 46 47 48 49 50
000
AXUS43 KLBF 260810
MISLBF


WESTERN AND NORTH CENTRAL NEBRASKA HOURLY WEATHER ROUNDUP
NATIONAL WEATHER SERVICE NORTH PLATTE NE
200 AM CST WED NOV 26 2014

***STATIONS NOT REPORTING VARIABLES SUCH AS SKY/WEATHER OR
PRESSURE ARE PROVIDED BY THE NEBRASKA DEPARTMENT OF
ROADS...RAWS...AND APRS NETWORKS...AND ARE NOT UNDER
NATIONAL WEATHER SERVICE QUALITY CONTROL***

...OBSERVATIONS IN AND NEAR THE EASTERN PANHANDLE OF NEBRASKA...

CITY           SKY/WX    TMP DP  RH WIND       PRES   REMARKS
PINE RIDGE     CLOUDY    31  22  69 N16G31    30.08R WCI  20
CHADRON        CLOUDY    44  23  43 NW18      30.10R
ALLIANCE       CLOUDY    32  22  66 NW23G36   30.04R WCI  19
SIDNEY         CLOUDY    29  24  82 NW17G25   30.07R WCI  17
WHITECLAY        N/A     29  21  70 NW18        N/A  WCI  17
CRESCENT LAKE    N/A     32  21  65 NW20G31     N/A  WCI  20
LISCO            N/A     35  19  52 W18         N/A  WCI  24
BIG SPRINGS      N/A     34  28  77 NW9         N/A  WCI  27
$$

...OBSERVATIONS IN NORTH CENTRAL NEBRASKA...

CITY           SKY/WX    TMP DP  RH WIND       PRES   REMARKS
VALENTINE      CLOUDY    33  23  66 NW26G43   29.97R WCI  20
THEDFORD       CLOUDY    36  24  61 NW24G37   29.97R WCI  25
AINSWORTH      CLOUDY    34  25  69 NW24G33   29.94R WCI  21
O`NEILL        CLOUDY    37  31  78 NW18G31   29.89R WCI  27
ORD            MOCLDY    36  26  67 NW15      29.91R WCI  27
BROKEN BOW     CLOUDY    38  23  55 NW23G36   29.94R WCI  27
BROWNLEE         N/A     35  23  60 NW33        N/A  WCI  21
SPRINGVIEW       N/A     36  27  68 W15G29      N/A  WCI  27
BREWSTER         N/A     36  27  71 NW21        N/A  WCI  25
SARGENT          N/A     36  27  71 NW8G18      N/A  WCI  30
COMSTOCK         N/A     40  25  55 NW26        N/A  WCI  29
CHAMBERS         N/A     36  28  73 NW7         N/A  WCI  30
EWING            N/A     36  31  82 CALM        N/A
$$

...OBSERVATIONS IN SOUTHWEST NEBRASKA AND FAR NORTHEAST COLORADO...

CITY           SKY/WX    TMP DP  RH WIND       PRES   REMARKS
WRAY           CLOUDY    34  32  92 W9        30.08S WCI  26
HOLYOKE        FAIR      36  28  75 NW13G22   30.06S WCI  27
IMPERIAL       CLOUDY    36  26  67 NW16      30.04R WCI  26
OGALLALA       CLOUDY    37  25  61 NW23G29   30.03R WCI  26
NORTH PLATTE   CLOUDY    35  27  72 NW17      30.01R WCI  25
MCCOOK         CLOUDY    39  30  70 W18G24    30.02R WCI  30
LEXINGTON      CLOUDY    37  31  79 W20G28    29.98R WCI  26
PAXTON           N/A     35  29  78 NW9         N/A  WCI  28
BRADY            N/A     35  31  84 SW3         N/A
GOTHENBURG       N/A     35  30  83 NW8         N/A  WCI  28
CALLAWAY         N/A     37  24  60 NW20        N/A  WCI  26
$$

...NORTH PLATTE AREA...

CITY           SKY/WX    TMP DP  RH WIND       PRES   REMARKS
AIRPORT        CLOUDY    35  27  72 NW17      30.01R WCI  25
DOWNTOWN         N/A     37  28  69 N8          N/A  WCI  31
$$

...SOME WEATHER OBSERVATIONS FROM AROUND THE REGION...

CITY           SKY/WX    TMP DP  RH WIND       PRES   REMARKS
DENVER         FLURRIES  30  26  85 CALM      30.14S
LARAMIE        LGT SNOW  21  18  88 N7        30.05R FOG     WCI  12
CHEYENNE       LGT SNOW  23  18  81 N16       30.07R WCI  10
SCOTTSBLUFF    CLOUDY    31  25  78 NW14G23   30.09S WCI  21
RAPID CITY     CLOUDY    27  21  78 N23G30    30.12R WCI  12
PIERRE         CLOUDY    26  22  84 NW29G45   29.99R WCI  10
WINNER         CLOUDY    34  25  69 NW30G40   29.94R WCI  20
SIOUX FALLS    LGT SNOW  31  29  92 NE6       29.82R FOG     WCI  25
OMAHA          DRIZZLE   35  34  96 S6        29.83F WCI  30
GRAND ISLAND   PTCLDY    34  27  75 NW15      29.92R WCI  24
KANSAS CITY    CLOUDY    39  22  50 S14       29.92F WCI  31
WICHITA        CLOUDY    41  28  60 SW8       29.96R
HAYS           CLOUDY    45  27  49 NW10      30.00R
LIBERAL        CLEAR     39  23  52 N20       30.04R WCI  30
GOODLAND       FLURRIES  34  33  96 NW16      30.09R WCI  24
$$



USA.gov is the U.S. government's official web portal to all federal, state and local government web resources and services.